Other Public Products
Issued by NWS Grand Forks, ND

Home | Current Version | Previous Version | Text Only | Print | Product List | Glossary Off
Versions: 1 2 3 4 5 6 7 8 9 10 11 12 13 14 15 16 17 18 19 20 21 22 23 24 25 26 27 28 29 30 31 32 33 34 35 36 37 38 39 40 41 42 43 44 45 46 47 48 49 50

000
FPUS83 KFGF 290310
OPUFGF
PRAIRIE TO PINES WEATHER ROUNDUP
NATIONAL WEATHER SERVICE EASTERN NORTH DAKOTA/GRAND FORKS ND
1000 PM CDT THU APR 28 2016

 **SATELLITE DATA USED TO AUGMENT SKY COVER AT AUTOMATED STATIONS**
 *****  WEATHER ACROSS EASTERN NORTH DAKOTA  *****

CITY           SKY/WX    TMP DP  RH WIND       PRES   REMARKS
GRAND FORKS    MOCLDY    41  31  67 NE5       30.15R
GRAND FORKS AF NOT AVBL
GRAND CITY NWS NOT AVBL
BUXTON         NOT AVBL
DEVILS LAKE    CLOUDY    46  28  49 CALM      30.17R
FARGO          PTCLDY    52  27  38 NE8       30.11R
WAHPETON ARPT  CLOUDY    45  36  70 SW6       30.13R
$$

 *****  WEATHER ACROSS CENTRAL AND WESTERN NORTH DAKOTA  *****

CITY           SKY/WX    TMP DP  RH WIND       PRES   REMARKS
JAMESTOWN      CLOUDY    48  31  51 NE9       30.14R
BISMARCK       CLOUDY    48  32  53 NE6       30.15R
MINOT          CLOUDY    48  20  32 NE6       30.17R
MINOT AFB      NOT AVBL
GARRISON         N/A     48  21  34 E9        30.15R
WILLISTON      CLOUDY    50  20  30 E3        30.16R
DICKINSON      CLOUDY    42  28  57 E7        30.12R
HETTINGER      CLOUDY    40  36  86 W7        30.14R
$$

 *****  OTHER OBSERVATIONS NORTHEAST NORTH DAKOTA  *****

CITY           SKY/WX    TMP DP  RH WIND       PRES   REMARKS
WALHALLA       FAIR      46  21  36 N10       30.19R
LANGDON        FAIR      45  19  36 NE12      30.18R
CAVALIER       FAIR      46  25  42 NE7       30.18R
GRAFTON        FAIR      45  28  53 NE7       30.18R
CANDO          FAIR      45  18  33 NE10      30.20R
FORT TOTTEN      N/A     44  22  42 E2        29.95S
ROLLA          MOCLDY    37  19  48 NE8       30.21R
RUGBY          FAIR      45  21  39 NE10      30.18R
 ***** THE ABOVE OBSERVATIONS ARE NON NWS ARE NOT QUALITY
        CONTROLLED AND MAY MIS-REPORT RAIN FOR SNOW...
$$

 *****  OTHER OBSERVATIONS SOUTHEAST NORTH DAKOTA *****

CITY           SKY/WX    TMP DP  RH WIND       PRES   REMARKS
COOPERSTOWN    NOT AVBL
VALLEY CITY    FAIR      45  28  53 NE9       30.15R
OAKES            N/A    N/A N/A N/A MISG        N/A
GWINNER        CLOUDY    48  39  71 W5        30.13R
BUFFALO        NOT AVBL
WYNDMERE       NOT AVBL
 ***** THE ABOVE OBSERVATIONS ARE NON NWS ARE NOT QUALITY
       CONTROLLED AND MAY MIS-REPORT RAIN FOR SNOW...
$$

  *****  WEATHER ACROSS NORTHERN MINNESOTA  *****

CITY           SKY/WX    TMP DP  RH WIND       PRES   REMARKS
FLAG ISLAND    CLOUDY    46  28  49 NE6       30.17R
WARROAD        CLOUDY    45  28  53 NE7       30.18R
ROSEAU         MOCLDY    41  34  75 E3        30.17S
HALLOCK        MOCLDY    46  21  36 E3        30.17R
THF RVR FALLS  CLEAR     45  23  42 NE7       30.16R
HALSTAD        NOT AVBL
FOSSTON        CLOUDY    45  30  57 NE3       30.14R
BAUDETTE       PTCLDY    46  27  47 NE8       30.16R
WASKISH        CLEAR     45  30  57 NE3       30.14R
CROOKSTON      CLEAR     46  27  46 E6        30.16R
$$
  *****  WEATHER ACROSS CENTRAL AND WEST MINNESOTA  *****

CITY           SKY/WX    TMP DP  RH WIND       PRES   REMARKS
BEMIDJI        CLOUDY    44  28  52 N3        30.12S
PARK RAPIDS    PTCLDY    48  26  42 E6        30.11R
WADENA         CLOUDY    45  36  70 S6        30.12R
DETROIT LAKES  CLOUDY    50  28  43 CALM      30.12R
MOORHEAD       PTCLDY    52  28  40 NE6       30.13R
FERGUS FALLS   CLOUDY    45  37  76 SW6       30.12R
ELBOW LAKE     CLOUDY    42  38  87 S6        30.14R
MORRIS MN      CLOUDY    43  39  87 S5        30.13R
STAPLES        CLOUDY    45  36  70 CALM      30.12R
WHEATON        CLOUDY    45  41  87 S5        30.16R
$$
  *****  WEATHER ELSEWHERE ACROSS MINNESOTA  *****

CITY           SKY/WX    TMP DP  RH WIND       PRES   REMARKS
DULUTH         PTCLDY    37  26  64 NE7       30.13R
INTRNTL FALLS  PTCLDY    46  29  51 N9        30.15R
ELY            PTCLDY    41  27  56 SE5       30.13R
CLOQUET        CLOUDY    37  25  60 CALM      30.13R
BRAINERD       CLOUDY    46  24  42 CALM      30.12R
HIBBING        CLOUDY    39  25  57 S3        30.12R
ALEXANDRIA     CLOUDY    42  37  82 CALM      30.13R
SAINT CLOUD    CLOUDY    41  39  93 CALM      30.12R
MINNEAPOLIS    LGT RAIN  41  38  89 E5        30.13R
$$

  *****  WEATHER ACROSS SOUTH DAKOTA  *****

CITY           SKY/WX    TMP DP  RH WIND       PRES   REMARKS
SIOUX FALLS    CLOUDY    38  35  89 NE8       30.11R
BROOKINGS      MIX PCPN  37  36  96 NE7       30.11R FOG
WATERTOWN      CLOUDY    39  36  89 SE3       30.12R
HURON          CLOUDY    39  36  89 NE7       30.13R
SISSETON         N/A     44  36  73 SW7       30.13R
ABERDEEN       CLOUDY    45  37  73 S8        30.14R
MITCHELL       CLOUDY    40  36  86 NE7       30.13R
PIERRE         CLOUDY    44  35  70 CALM      30.12R
MOBRIDGE       CLOUDY    48  40  73 CALM      30.10R
RAPID CITY     CLOUDY    37  34  89 N3        30.13R
$$

  *****  SOME WEATHER IN NEARBY STATES *****

CITY           SKY/WX    TMP DP  RH WIND       PRES   REMARKS
GLASGOW MT     CLOUDY    44  34  67 SE3       30.13R
GREAT FALLS MT CLOUDY    39  32  76 NE8       30.06S
CHEYENNE WY    CLOUDY    34  32  92 S8        30.04R
SCOTTSBLUFF NE CLOUDY    38  35  89 CALM      30.11R
OMAHA NE       CLOUDY    46  41  82 N8        30.09R
DES MOINES IA  DRIZZLE   50  45  83 NW8       30.04R
DAVENPORT IA   CLOUDY    50  48  93 E7        30.00R FOG
CHICAGO IL     LGT RAIN  42  41  96 N9        30.01R FOG
EAU CLAIRE WI  LGT RAIN  39  38  96 CALM      30.11R
LA CROSSE WI   CLOUDY    41  36  82 NE6       30.09R
$$

  *****  SOME NATIONAL WEATHER *****

CITY           SKY/WX    TMP DP  RH WIND       PRES   REMARKS
LA GUARDIA NY  CLOUDY    50  37  61 S7        30.07R
RALEIGH NC     LGT RAIN  66  63  90 NE7       29.89R
ATLANTA GA     PTCLDY    72  60  66 W5        29.98R
NEW ORLEANS LA MOCLDY    75  70  84 SE7       29.95R
OKLAHOMA CITY  CLOUDY    67  51  56 E13       29.87F
ALBUQUERQUE NM MOCLDY    66   6   9 S10       29.73R
SALT LAKE CITY CLOUDY    51  32  48 E13       29.79R
LOS ANGELES CA PTCLDY    59  51  75 W9        29.89R
BOISE ID       PTCLDY    59  31  34 NW15      29.83R
SEATTLE WA     CLOUDY    57  46  66 W5        30.08S
$$

*** WEATHER ACROSS MANITOBA...SASKATCHEWAN AND ONTARIO ***
                ***ONTARIO***

CITY           SKY/WX    TMP DP  RH WIND       PRES   REMARKS
GERALDTON      MOCLDY    36  27  69 NE3       30.19F
THUNDER BAY    PTCLDY    32  25  74 W2        30.16S
SIOUX LOOKOUT  NOT AVBL
TORONTO        MOCLDY    43  25  49 E6        30.07S
BIG TROUT LK   CLOUDY    32  27  80 VRB2      30.30S
PICKLE LAKE    NOT AVBL
DRYDEN         CLOUDY    45  30  57 NE3       30.18R
KENORA         MOCLDY    45  30  57 NE5       30.19R
$$
                *** MANITOBA***

CITY           SKY/WX    TMP DP  RH WIND       PRES   REMARKS
BRANDON        MOCLDY    39  18  41 NE8       30.23R
DAUPHIN        CLEAR     41  16  36 E6        30.26R
ISLAND LAKE    CLEAR     39  10  30 NE5       30.31S
PILOT MOUND      N/A     45  12  26 NE6         N/A
THE PAS        PTCLDY    45  23  42 SE5       30.29R
THOMPSON       NOT AVBL
WINNIPEG       MOCLDY    43  19  39 NE8       30.22R
LYNN LAKE      PTCLDY    48  27  43 CALM      30.20S
CHURCHILL      PTCLDY    25  21  86 E3        30.46S
GILLAM         MOCLDY    34  18  51 E7        30.39S
$$
                ***SASKATCHEWAN***

CITY           SKY/WX    TMP DP  RH WIND       PRES   REMARKS
ESTEVAN        CLOUDY    43  16  33 E8        30.19R
KINDERSLEY     PTCLDY    46  27  46 SE10      30.13R
LLOYDMINSTER   MOCLDY    52  25  35 SE10      30.10S
PRINCE ALBERT  PTCLDY    50  27  40 SE8       30.19R
REGINA         MOCLDY    50  19  29 E14       30.18R
YORKTON        CLEAR     45  23  42 SE8       30.22R
N. BATTLEFORD  CLEAR     50  23  34 SE12      30.16S  C1F1C2F2C3F3C4F4C5F5C6F6C7F7C8F8C9F9CaFaCbFbCcFcCdFdCe!


USA.gov is the U.S. government's official web portal to all federal, state and local government web resources and services.